Wind_Speed
66 71 74 77 85 91 108 118 120 127 126 124 119 117 116 110 110 103 100 96 90 88 87 84 79 81 78 76 76 78 82 79 79 81 78 76 75 76 76 75 75 72 72 70
60 62 69 77 82 89 99 112 117 120 126 123 122 118 121 113 111 106 86 91 103 98 91 87 87 83 81 79 78 78 86 85 83 82 82 83 83 82 81 81 79 76 77 79
57 61 66 72 81 87 96 106 115 120 127 128 126 124 125 117 114 111 103 71 104 104 92 88 84 85 84 84 83 82 83 86 86 88 88 85 84 84 83 81 80 80 81 81
60 61 64 68 76 83 91 102 112 120 131 130 129 126 124 119 116 112 116 128 112 103 96 92 89 87 86 86 85 84 85 84 84 86 87 87 86 86 85 84 84 84 85 85
52 54 60 65 69 80 89 98 109 119 127 126 130 126 124 118 115 111 111 114 113 106 102 96 92 93 91 89 88 88 87 87 87 86 86 85 84 86 85 84 83 83 83 85
48 53 57 65 72 78 86 96 107 114 120 121 126 126 126 121 118 108 109 109 109 106 101 101 101 99 94 94 93 92 91 90 90 89 87 87 86 86 87 87 87 87 88 91
47 47 53 60 67 81 86 93 103 106 109 115 123 126 123 122 115 111 108 106 107 104 104 107 108 101 102 97 96 96 94 93 93 92 90 90 90 91 91 91 92 92 92 95
41 41 44 46 56 64 71 81 93 98 109 113 119 122 120 123 118 115 111 107 107 104 105 107 108 104 104 102 101 100 98 97 97 96 96 96 97 98 97 97 97 98 100 102
36 39 43 45 55 63 75 81 85 91 96 101 109 109 111 120 119 114 110 110 107 104 104 104 107 107 107 106 105 106 104 102 101 101 101 102 103 102 102 103 102 104 106 108
30 36 38 44 53 65 73 78 83 91 98 106 111 110 108 113 114 110 113 112 113 108 101 105 108 108 106 106 108 107 106 104 105 106 106 107 108 107 106 106 108 110 112 114
27 32 34 38 47 57 68 74 73 82 91 96 103 100 105 108 112 111 108 110 112 110 112 104 103 108 106 107 109 108 108 107 108 109 110 110 110 110 111 112 114 116 117 117
24 27 34 41 50 57 63 66 68 74 82 88 94 98 107 104 103 105 107 108 110 110 107 109 112 111 102 103 106 108 108 109 110 111 112 113 113 114 116 116 118 117 117 119
27 29 31 38 46 53 57 59 67 69 77 82 86 88 94 94 95 99 104 107 107 108 110 110 110 109 109 111 110 109 108 107 108 109 111 114 114 113 113 113 115 117 119 121
28 28 33 35 39 45 51 54 56 61 65 67 76 81 82 88 91 91 94 97 100 105 107 110 108 107 107 108 108 108 109 112 115 116 115 116 115 117 118 119 121 120 121 121
30 32 33 33 37 39 44 49 52 53 58 63 68 73 76 78 81 84 86 91 94 97 100 102 105 107 104 106 103 104 107 109 112 112 111 112 112 113 115 117 118 119 120 121
32 34 34 33 31 35 37 41 45 52 57 62 68 68 68 68 77 78 81 84 87 91 92 93 91 96 99 103 105 107 107 108 110 112 112 113 115 116 115 116 117 115 113 108
26 31 36 36 36 34 35 37 38 43 49 58 64 61 67 73 74 75 78 78 79 81 83 84 83 84 91 96 96 95 97 100 102 102 105 106 105 106 103 101 98 95 97 98
27 27 29 29 31 34 36 39 42 44 47 52 48 46 70 68 70 73 75 76 78 81 81 80 82 83 84 84 86 87 90 93 94 93 92 92 93 90 88 88 88 86 85 86
25 26 24 26 30 28 10 31 31 31 32 37 44 70 62 60 66 70 72 72 71 71 73 76 80 82 81 82 85 85 85 85 84 82 80 79 80 77 75 76 78 79 80 78
24 27 32 33 29 33 31 28 28 27 18 31 35 41 44 45 48 51 53 54 52 50 56 61 65 68 69 71 71 70 73 72 72 71 70 72 72 72 70 67 66 65 66 64
27 26 27 25 26 26 21 25 24 26 28 37 35 37 39 41 44 47 48 46 46 47 54 48 39 52 56 54 50 51 56 57 58 59 57 57 55 53 54 55 55 55 52 50
27 26 25 26 27 25 27 22 22 23 24 27 25 25 28 29 32 30 24 22 22 24 28 33 31 30 28 32 34 39 41 41 40 40 44 44 45 47 50 49 46 45 46 49
28 28 29 28 25 24 24 26 22 20 24 20 18 17 20 20 21 19 17 17 17 20 24 26 32 30 28 29 30 30 28 29 32 32 33 35 38 39 41 43 46 49 52 53
31 31 30 28 25 23 23 20 21 25 22 20 20 14 14 15 15 15 16 15 14 16 17 18 18 18 19 20 22 25 27 29 32 34 37 40 42 45 47 49 51 54 54 53
32 31 29 26 27 25 24 21 22 21 21 19 20 17 15 14 14 15 14 13 14 15 17 18 21 23 24 26 29 31 33 35 38 40 42 45 47 49 51 54 56 59 60 59
38 34 32 30 25 22 24 23 21 19 21 21 19 18 17 16 16 16 17 18 19 22 23 24 26 29 31 33 35 38 40 42 43 45 48 50 53 57 60 62 64 68 67 67
Wind_Direction
218 213 215 216 217 215 215 213 213 212 212 211 212 215 217 219 222 222 223 223 226 226 225 226 230 232 233 235 235 237 240 242 244 245 249 254 256 259 261 264 266 272 276 279
211 209 210 210 211 211 211 210 212 212 213 212 212 214 218 217 221 221 222 238 229 227 226 227 228 230 233 236 239 240 245 242 246 250 251 253 256 260 262 263 266 271 275 277
201 204 209 209 209 207 206 207 209 211 213 212 212 213 217 215 219 220 202 215 225 225 226 229 232 233 234 235 237 240 245 248 248 250 253 254 256 260 265 267 269 272 274 276
199 204 204 207 207 206 206 205 207 210 212 210 212 213 217 213 217 219 218 222 226 224 225 230 233 235 237 240 241 243 244 248 251 253 256 258 260 262 264 267 269 272 274 277
201 204 205 205 206 206 204 205 207 209 213 209 212 214 215 215 215 219 223 226 227 226 228 231 233 236 237 240 243 245 247 250 253 254 256 259 261 263 265 268 270 273 276 277
198 202 205 205 204 203 204 205 206 209 213 211 213 213 215 215 215 216 223 227 230 228 231 234 235 236 238 240 241 244 248 251 254 257 259 260 262 265 267 270 272 274 276 277
200 204 209 207 204 203 200 205 206 207 210 211 213 214 215 216 215 215 220 224 230 231 233 235 237 237 240 241 244 244 247 251 254 256 259 261 264 266 268 269 272 274 276 278
201 204 208 208 204 206 202 206 208 208 209 210 215 215 215 217 216 216 218 223 228 232 235 237 239 240 244 243 246 248 249 251 254 257 259 262 264 266 269 271 274 276 278 280
202 198 200 199 204 199 200 203 205 207 210 214 218 217 218 219 217 218 220 222 227 231 235 239 242 240 243 246 248 249 251 253 255 258 260 262 264 266 269 271 274 276 278 279
205 201 199 198 200 198 199 203 207 208 208 211 214 214 217 220 218 218 221 224 227 228 232 237 239 243 242 246 248 251 254 255 257 259 261 263 265 267 269 273 275 276 277 279
187 192 195 193 195 199 204 207 205 208 210 215 219 217 219 221 219 219 221 225 226 229 231 233 237 241 243 245 249 251 254 257 259 261 263 265 267 270 271 272 275 276 277 279
171 178 183 187 193 195 203 205 208 211 213 216 219 217 220 222 223 220 224 226 228 229 233 236 240 241 242 245 250 253 256 258 260 263 264 267 269 270 272 274 276 278 280 282
165 173 182 189 190 195 200 203 208 212 214 216 221 222 224 223 224 225 226 229 231 231 233 236 239 243 246 248 249 251 254 257 259 261 264 266 269 270 272 274 275 277 279 280
161 169 171 177 186 194 200 205 210 211 214 219 225 226 224 225 225 227 230 230 234 235 236 237 240 244 247 250 251 254 256 257 259 260 262 263 265 267 269 271 274 276 278 280
165 168 171 176 182 187 196 202 209 212 215 219 223 226 225 226 228 230 233 235 237 239 241 242 243 246 249 251 254 256 258 259 261 262 263 265 267 269 271 273 274 275 278 280
174 174 172 175 184 190 194 202 207 212 215 221 224 224 225 237 231 233 235 238 241 243 246 247 249 251 252 255 255 257 260 262 264 265 266 268 269 272 273 275 277 279 281 283
162 181 184 186 185 195 201 201 205 212 220 227 229 230 228 233 235 238 240 242 245 248 250 252 254 255 257 258 260 262 263 265 267 268 268 270 272 275 277 278 279 280 281 282
162 164 169 180 190 199 210 215 217 220 225 231 233 257 243 240 242 243 244 245 248 250 252 253 254 254 257 258 261 263 264 265 267 270 271 273 274 276 277 278 280 282 283 285
174 172 170 182 181 175 211 208 209 212 218 223 216 223 242 244 246 247 249 249 250 252 253 254 254 254 255 257 258 260 263 266 267 270 272 273 275 277 277 278 279 279 282 283
190 181 184 190 187 190 200 202 200 201 207 223 223 229 234 238 243 247 248 248 247 251 252 253 253 255 256 257 259 262 262 264 266 269 271 273 274 275 277 278 279 280 283 285
197 196 198 192 193 195 198 210 210 210 196 234 234 239 241 242 241 245 248 247 245 231 232 245 248 253 262 264 263 261 265 266 266 267 270 272 273 272 272 275 278 283 282 280
205 195 195 196 195 188 206 206 211 218 227 230 235 236 231 222 223 219 211 203 205 222 234 239 240 248 253 253 254 256 263 265 264 266 266 266 269 272 275 276 276 279 280 281
203 197 192 200 199 199 202 202 204 211 215 219 221 223 211 204 195 187 181 185 200 206 208 218 226 229 243 251 254 254 261 260 263 266 269 271 273 275 278 279 280 280 280 281
200 196 193 199 202 206 207 207 200 212 210 209 214 207 189 180 173 179 185 194 208 217 216 217 221 233 243 253 260 262 266 269 272 277 279 279 280 280 280 280 280 281 281 283
201 199 198 207 210 209 208 206 210 211 210 203 196 198 197 194 197 204 211 219 232 240 245 250 253 256 259 263 266 267 269 270 270 272 275 278 280 282 283 284 284 285 287 289
205 200 207 211 216 216 217 211 213 217 212 214 217 219 223 227 229 236 239 242 247 249 252 258 263 265 267 268 267 265 266 269 273 276 279 281 283 285 286 288 289 289 291 293
Height
10483 10498 10522 10545 10562 10584 10600 10625 10648 10670 10685 10703 10726 10733 10750 10772 10782 10801 10817 10826 10836 10842 10843 10850 10858 10864 10870 10874 10877 10881 10881 10882 10885 10886 10890 10891 10894 10894 10896 10899 10900 10902 10899 10900
10477 10498 10508 10522 10539 10558 10580 10606 10633 10658 10672 10694 10708 10722 10729 10754 10769 10794 10838 10839 10828 10820 10829 10836 10844 10850 10859 10862 10865 10868 10866 10871 10873 10875 10877 10881 10883 10884 10887 10889 10890 10890 10888 10887
10472 10483 10495 10510 10525 10543 10562 10588 10607 10629 10644 10667 10682 10696 10703 10736 10752 10776 10818 10783 10788 10805 10822 10827 10833 10840 10844 10847 10851 10856 10857 10859 10861 10861 10864 10869 10872 10875 10876 10878 10877 10877 10875 10874
10458 10472 10487 10502 10518 10536 10553 10571 10586 10605 10610 10648 10666 10685 10691 10719 10733 10756 10776 10773 10784 10796 10808 10814 10822 10827 10831 10835 10839 10842 10843 10846 10849 10850 10854 10858 10861 10863 10865 10865 10863 10864 10862 10860
10461 10474 10484 10497 10515 10527 10542 10558 10574 10587 10605 10638 10650 10670 10687 10710 10724 10743 10756 10764 10771 10788 10795 10806 10811 10813 10820 10824 10828 10829 10830 10833 10835 10838 10843 10847 10850 10849 10849 10850 10850 10849 10848 10844
10457 10467 10479 10489 10500 10516 10528 10545 10559 10578 10600 10624 10638 10655 10669 10690 10713 10736 10746 10753 10760 10775 10787 10790 10794 10799 10808 10809 10814 10818 10820 10823 10825 10829 10833 10836 10836 10836 10835 10835 10835 10835 10834 10828
10457 10468 10475 10484 10498 10503 10520 10538 10549 10571 10589 10608 10621 10638 10664 10682 10705 10723 10731 10741 10751 10762 10769 10773 10777 10794 10790 10799 10802 10806 10810 10813 10817 10819 10822 10823 10822 10821 10821 10822 10821 10820 10818 10814
10458 10469 10479 10492 10501 10515 10538 10547 10556 10574 10577 10599 10611 10636 10656 10665 10692 10706 10718 10731 10740 10751 10755 10760 10767 10779 10780 10787 10789 10793 10797 10802 10806 10808 10809 10808 10807 10807 10808 10808 10806 10805 10801 10795
10460 10467 10473 10484 10493 10508 10521 10532 10552 10570 10591 10611 10617 10646 10651 10654 10679 10703 10717 10724 10734 10741 10747 10753 10752 10764 10765 10771 10776 10779 10784 10789 10793 10794 10793 10792 10793 10794 10795 10794 10793 10788 10782 10780
10460 10465 10473 10482 10491 10502 10517 10531 10546 10560 10575 10581 10590 10617 10634 10648 10672 10689 10699 10706 10717 10726 10735 10735 10736 10741 10757 10757 10758 10765 10770 10776 10778 10776 10777 10777 10776 10779 10782 10780 10775 10769 10765 10760
10460 10467 10475 10485 10496 10508 10519 10527 10547 10562 10574 10586 10593 10621 10624 10634 10654 10674 10682 10688 10696 10706 10715 10719 10718 10717 10743 10742 10744 10752 10757 10760 10760 10761 10761 10761 10762 10766 10764 10761 10756 10751 10747 10745
10461 10469 10475 10484 10494 10503 10517 10532 10547 10558 10571 10582 10589 10601 10603 10627 10641 10661 10670 10672 10682 10696 10701 10702 10704 10709 10724 10729 10734 10739 10744 10745 10744 10743 10743 10743 10748 10747 10744 10743 10737 10731 10728 10725
10463 10471 10480 10488 10495 10507 10519 10532 10541 10555 10564 10573 10583 10599 10604 10625 10638 10648 10653 10662 10672 10681 10687 10689 10694 10704 10709 10714 10723 10725 10727 10729 10724 10726 10726 10727 10729 10729 10728 10722 10715 10713 10710 10705
10471 10479 10484 10492 10501 10510 10523 10534 10544 10555 10565 10578 10579 10593 10608 10614 10625 10634 10642 10652 10658 10664 10672 10675 10685 10692 10699 10703 10707 10707 10712 10708 10706 10707 10709 10711 10714 10710 10706 10702 10698 10695 10689 10685
10478 10484 10490 10497 10504 10512 10520 10530 10541 10553 10563 10569 10575 10581 10595 10607 10615 10624 10630 10638 10647 10651 10658 10667 10675 10681 10688 10684 10689 10690 10688 10687 10687 10689 10694 10693 10692 10689 10687 10681 10677 10675 10669 10663
10482 10489 10496 10502 10509 10516 10523 10530 10538 10546 10553 10557 10562 10578 10598 10593 10602 10610 10618 10626 10633 10638 10646 10654 10668 10662 10668 10665 10671 10672 10670 10668 10666 10669 10675 10670 10667 10666 10663 10660 10657 10652 10646 10642
10485 10490 10497 10503 10510 10518 10524 10530 10536 10542 10549 10553 10560 10580 10586 10588 10595 10602 10607 10615 10620 10626 10632 10637 10648 10648 10644 10648 10652 10651 10649 10650 10651 10650 10650 10650 10646 10644 10643 10638 10633 10629 10626 10619
10487 10492 10497 10504 10511 10518 10523 10528 10533 10540 10545 10553 10575 10582 10574 10580 10585 10589 10596 10603 10607 10612 10618 10624 10625 10628 10628 10631 10630 10631 10629 10629 10630 10631 10630 10628 10625 10622 10620 10617 10613 10609 10605 10601
10489 10494 10502 10505 10510 10521 10526 10525 10531 10537 10543 10551 10569 10557 10564 10567 10569 10573 10579 10586 10593 10599 10602 10603 10604 10606 10611 10612 10610 10611 10613 10614 10614 10613 10611 10609 10605 10604 10602 10598 10595 10592 10589 10585
10491 10494 10501 10500 10511 10516 10519 10524 10530 10536 10544 10547 10548 10548 10550 10555 10557 10560 10564 10571 10581 10586 10579 10583 10587 10588 10590 10592 10596 10597 10596 10597 10596 10597 10595 10592 10589 10587 10585 10582 10578 10575 10572 10569
10489 10494 10499 10504 10510 10513 10517 10522 10528 10533 10542 10536 10541 10541 10544 10547 10549 10550 10553 10560 10566 10569 10567 10573 10573 10570 10576 10579 10580 10578 10580 10580 10581 10580 10579 10577 10575 10572 10569 10566 10564 10562 10558 10555
10488 10493 10497 10502 10507 10513 10513 10519 10525 10529 10531 10533 10532 10532 10533 10535 10538 10541 10545 10549 10555 10559 10561 10562 10565 10565 10566 10567 10567 10567 10568 10568 10568 10567 10566 10564 10563 10560 10558 10556 10554 10552 10549 10546
10485 10490 10495 10500 10505 10509 10513 10515 10519 10524 10526 10527 10528 10527 10529 10531 10533 10537 10540 10544 10548 10550 10553 10555 10557 10558 10559 10560 10561 10561 10561 10561 10560 10559 10557 10556 10554 10552 10549 10546 10544 10541 10538 10536
10481 10484 10491 10496 10502 10505 10507 10511 10514 10517 10520 10523 10525 10527 10528 10530 10532 10535 10538 10540 10543 10545 10547 10548 10550 10552 10553 10554 10554 10553 10553 10552 10551 10550 10548 10546 10543 10541 10538 10535 10533 10529 10527 10525
10476 10484 10487 10493 10495 10500 10503 10506 10509 10513 10517 10520 10523 10525 10527 10529 10532 10534 10536 10537 10539 10541 10542 10544 10545 10546 10546 10546 10546 10545 10544 10543 10541 10540 10537 10535 10532 10529 10526 10522 10518 10514 10511 10508
10469 10477 10482 10486 10492 10497 10498 10502 10506 10509 10513 10516 10519 10522 10524 10526 10529 10531 10532 10533 10535 10536 10537 10537 10538 10538 10539 10538 10538 10536 10534 10533 10530 10528 10525 10522 10519 10515 10511 10507 10503 10497 10495 10493